STARLINK-1800, 46700

Orbit data source: Space-Track

STARLINK-1800, 46700 is a payload satellite owned by SpaceX/Seattle (US) in LEO that was launched on Sun, 18 Oct 2020 UTC via an FALCON 9 launch vehicle from the Air Force Eastern Test Range (AFETR). Payload-class satellites include a variety of spacecraft equipped with specific instruments for various scientific and technological missions. These include communications satellites like Starlink; space stations such as the ISS; scientific satellites like the Hubble; Earth observation satellites from companies like Planet Labs, Umbra, and HawkEye 360; GPS; miniature CubeSats for education and research; and military/defense satellites.

Loading next visibility...
Identifier
46700, 2020-073AG
Orbit
LEO
Last TLE update
2 days ago
Origin
Manufacturer
SpaceX/Seattle
Mission
Operational Commercial Communications
Bus & Motor
STARLINK, Unknown motor
Mass
260 kg wet, ~248 kg dry
Launch date (UTC)
2020-10-18 (5 years ago)
Launch vehicle
FALCON 9
Launch site
Air Force Eastern Test Range (AFETR)
Object type
Payload
Rocket body
Debris
Shape & HBR
Box + 1 Pan, 8.86 m
Radar Cross Section
13.562 m², Large (>1 m²)

Expand to show TLE details & history

TLE from 2 days ago
0 STARLINK-1800
1 46700U 20073AG  25118.71287521 -.00001987  00000-0 -11460-3 0  9991
2 46700  53.0541 230.5998 0001580 103.0286 257.0879 15.06385592249442
Epoch: 2025-04-28T17:06Z
Definitive object data (Epoch: 2025-04-28T17:06:32.418Z)
Latitude
-0.00004°
Longitude
117.04174°
Altitude
548.38 km
Speed
7.589 km/s
True Right ascension
15h 22m 23s
True Declination
0° 00' 00"
Sunlit
Object was in full shadow at TLE epoch
Visualization TLE readout
Latitude
1.75598°
Longitude
108.2245°
Altitude
548.277 km
Speed
7.589 km/s
Apparent Right ascension
16h 26m 16s
Apparent Declination
-20° 40' 08"
Sunlit
Object is in full shadow
Visualization observer readout
Local Sidereal Time
06:51:36
Azimuth
68.988° E
Elevation
-53.571°
Doppler factor
1
Orbital elements
Apogee altitude
548.621 km
Perigee altitude
546.432 km
Semi-major axis
6,925.663 km
Eccentricity
0.000158
Inclination
53.0541°
RAAN
230.5998°
Arg. of periapsis
103.0286°
True anomaly
257.07025°
Mean anomaly
257.0879°
Eccentric anomaly
257.07908°
Mean motion
3.76575 °/min
BSTAR
-0.0001146
Orbital period
95.6 mins
Loading maneuver chart data...
Loading SW <> Apogee altitude chart data...
Loading historical data...
Loading historical data...
Loading historical data...
Loading historical data...
Loading historical data...
Loading historical data...
Loading historical data...

STARLINK-1800 Visibility forecast

Observer location: undefined°, undefined°

Span
Click to sort rows by Start time (UTC) header in descending order
Start Az.
Max El. time (UTC)
Max El. Az.
Max El.
End time (UTC)
End Az.
7 mins2025-05-01 08:57:29.534Z207.745° SW2025-05-01 09:01:29.534Z115.723° SE35.945°2025-05-01 09:04:29.534Z62.646° ENE
5 mins2025-05-01 10:38:29.534Z282.678° WNW2025-05-01 10:40:29.534Z323.875° NNW25.962°2025-05-01 10:43:29.534Z26.46° NE
6 mins2025-05-01 15:40:29.534Z330.131° NNW2025-05-01 15:42:29.534Z29.625° NE37.495°2025-05-01 15:46:29.534Z111.144° ESE
4 mins2025-05-01 17:20:29.534Z259.862° W2025-05-01 17:21:29.534Z239.41° WSW21.051°2025-05-01 17:24:29.534Z184.223° SSW
|